Regional Weather Roundup
Issued by NWS

Home | Current Version | Previous Version | Graphics & Text | Print | Product List | Glossary On
Versions: 1 2 3 4 5 6 7 8 9 10 11 12 13 14 15 16 17 18 19 20 21 22 23 24 25 26 27 28 29 30 31 32 33 34 35 36 37 38 39 40 41 42 43 44 45 46 47 48
000
ASUS45 KSLC 280210
RWRUT

UTAH REGIONAL WEATHER ROUNDUP
NATIONAL WEATHER SERVICE SALT LAKE CITY UT
800 PM MDT THU AUG 27 2015

UTZ001>011-023>025-280300-

NORTHERN UTAH

CITY           SKY/WX    TMP DP  RH WIND       PRES   REMARKS
BRIGHAM CITY   PTCLDY    81  47  30 SW5       30.14R
HILL AFB       CLEAR     79  47  31 SW6       30.18S
LOGAN          CLEAR     76  50  40 W3        30.15S
OGDEN          CLEAR     79  49  34 W6        30.14S
PROVO AIRPORT  PTCLDY    75  55  50 VRB5      30.17S
SALT LAKE CITY PTCLDY    84  46  26 NW5       30.12F
VERNAL         CLOUDY    73  51  46 CALM      30.17R
WENDOVER       CLEAR     84  37  18 SW3       30.13R
HEBER CITY     CLEAR     70  46  43 CALM      30.22S
WEST JORDAN    CLEAR     81  45  28 NW5       30.16F

$$

UTZ012>022-026-027-280300-

SOUTHERN/CENTRAL UTAH

CITY           SKY/WX    TMP DP  RH WIND       PRES   REMARKS
BLANDING       CLEAR     76  43  31 NW7       30.28F
BRYCE CANYON   MOCLDY    66  52  60 SE5       30.38F
CEDAR CITY     MOCLDY    76  46  34 CALM      30.22F
DELTA          MOCLDY    82  42  24 NE5       30.17S
HANKSVILLE     PTCLDY    82  41  23 SW8       30.12S
MILFORD        MOCLDY    82  43  25 NW5       30.17F
MOAB/CYNLANDS  CLEAR     82  51  34 SE6       30.09F
PRICE          PTCLDY    77  44  30 NW13      30.22S
ST GEORGE      CLEAR     93  46  20 NE7       30.01S
KANAB          PTCLDY    75  64  69 CALM      30.22F

$$

REGIONAL REPORTS     COLORADO/ARIZONA

CITY           SKY/WX    TMP DP  RH WIND       PRES   REMARKS
CRAIG, CO      MOCLDY    67  46  47 N6        30.24R
GRAND JUNCTION MOCLDY    75  58  55 NE6       30.13F
RIFLE          MOCLDY    66  60  81 CALM      30.22S
MONTROSE       PTCLDY    73  56  54 SW5       30.23S
CORTEZ         CLEAR     72  55  55 SW5       30.20S
PAGE, AZ       PTCLDY    85  51  31 CALM      30.11S
GRAND CANYON   PTCLDY    74  42  31 NW3       30.32R
KINGMAN        PTCLDY    90  52  27 N8        30.06R
FLAGSTAFF      MOCLDY    59  58  96 CALM      30.36S

$$

REGIONAL REPORTS    NEVADA/IDAHO/WYOMING

CITY           SKY/WX    TMP DP  RH WIND       PRES   REMARKS
LAS VEGAS, NV  PTCLDY    98  50  19 E3        29.90S HX  95
ELY            PTCLDY    75  40  28 SW6       30.28F
ELKO           CLEAR     85  31  14 W5        30.16S
POCATELLO, ID  CLEAR     80  41  24 SW10      30.13S
BURLEY         CLEAR     80  44  27 NW7       30.10S
EVANSTON, WY   PTCLDY    65  37  35 N7        30.35F
ROCK SPRINGS   MOCLDY    62  47  57 N8        30.32R
KEMMERER       MOCLDY    63  37  39 NW3       30.35S

$$


USA.gov is the U.S. government's official web portal to all federal, state and local government web resources and services.